Regional Weather Roundup
Issued by NWS

Home | Current Version | Previous Version | Graphics & Text | Print | Product List | Glossary On
Versions: 1 2 3 4 5 6 7 8 9 10 11 12 13 14 15 16 17 18 19 20 21 22 23 24 25 26 27 28 29 30 31 32 33 34 35 36 37 38 39 40 41 42 43 44 45 46 47 48 49 50
000
ASUS43 KOAX 251502
RWRNE

WEATHER ROUNDUP FOR NEBRASKA
NATIONAL WEATHER SERVICE OMAHA NE
900 AM CST THU DEC 25 2014

NOTES: SATELLITE DATA IS BEING USED TO AUGMENT CLOUD COVER ABOVE
       12000 FEET.
       "FAIR" INDICATES FEW OR NO CLOUDS BELOW 12,000 FEET WITH NO
       SIGNIFICANT WEATHER AND/OR OBSTRUCTIONS TO VISIBILITY.

  * THESE STATIONS DO NOT REPORT WEATHER SUCH AS RAIN...SNOW OR FOG.

NEZ001>004-019>022-054>056-251600-
NEBRASKA PANHANDLE

CITY           SKY/WX    TMP DP  RH WIND       PRES   REMARKS
SCOTTSBLUFF    MIX PCPN  32  26  78 N15G24    29.51R WCI  22
ALLIANCE       CLOUDY    28  25  88 N17       29.51R WCI  16
CHADRON        FOG       31  29  92 NE14      29.58R VSB 1   WCI  21
KIMBALL        CLOUDY    38  30  74 N16       29.43R WCI  28
SIDNEY         MOCLDY    36  25  64 NE10      29.45R WCI  28
$$

NEZ057>060-069>072-079>082-251600-
SOUTHWEST NEBRASKA

CITY           SKY/WX    TMP DP  RH WIND       PRES   REMARKS
NORTH PLATTE   MOCLDY    27  22  81 E6        29.46R WCI  20
IMPERIAL       MOCLDY    25  20  81 N7        29.42F WCI  17
LEXINGTON      PTCLDY    30  24  78 E6        29.48R WCI  24
MCCOOK         PTCLDY    26  21  81 E8        29.42F WCI  18
OGALLALA       MOCLDY    28  25  89 E3        29.45R
$$

NEZ005>010-023>029-035>040-094-251600-
NORTH CENTRAL NEBRASKA

CITY           SKY/WX    TMP DP  RH WIND       PRES   REMARKS
VALENTINE      CLOUDY    29  23  78 NE13      29.56R WCI  19
AINSWORTH      MOCLDY    29  26  88 N8        29.53R WCI  21
BROKEN BOW     PTCLDY    28  23  81 SE6       29.49R WCI  22
O`NEILL        PTCLDY    26  25  96 N3        29.54S
ORD            CLEAR     26  22  84 CALM      29.53R
$$

NEZ041-046>049-061>064-073>077-083>087-251600-
SOUTH CENTRAL NEBRASKA

CITY           SKY/WX    TMP DP  RH WIND       PRES   REMARKS
GRAND ISLAND   CLEAR     30  23  75 SE9       29.56R WCI  22
AURORA         PTCLDY    30  25  81 SE10      29.57R WCI  21
HASTINGS       CLEAR     30  21  69 S10       29.54R WCI  21
HEBRON         CLEAR     33  24  70 S10       29.59S WCI  25
HOLDREGE       PTCLDY    28  22  76 SE7       29.48S WCI  21
KEARNEY *      PTCLDY    27  21  80 SE9       29.51S WCI  17
YORK           MOCLDY    32  25  74 S14       29.58R WCI  22
$$

NEZ011>018-030>034-042>045-251600-
NORTHEAST NEBRASKA

CITY           SKY/WX    TMP DP  RH WIND       PRES   REMARKS
NORFOLK        PTCLDY    27  22  81 S7        29.58R WCI  19
ALBION         PTCLDY    26  21  82 CALM      29.57R
BLAIR          PTCLDY    34  27  76 SE10      29.64R WCI  26
COLUMBUS *     PTCLDY    32  21  64 SE6       29.61R WCI  26
FREMONT        MOCLDY    34  28  80 SE6       29.64R WCI  29
TEKAMAH        MOCLDY    33  29  85 S3        29.66R
WAYNE          CLOUDY    31  27  84 S10       29.59S WCI  22
$$

NEZ050>053-065>068-078-088>093-251600-
SOUTHEAST NEBRASKA

CITY           SKY/WX    TMP DP  RH WIND       PRES   REMARKS
LINCOLN        CLOUDY    33  26  75 S8        29.64R WCI  26
OMAHA EPPLEY   MOCLDY    33  27  78 S15       29.68R WCI  23
BEATRICE       PTSUNNY   33  26  73 SE10      29.63R WCI  25
FALLS CITY     MOSUNNY   35  27  72 S15       29.69S WCI  25
NEBRASKA CITY  MOSUNNY   33  26  77 S14G21    29.67R WCI  23
PLATTSMOUTH    MOSUNNY   32  26  78 SE13      29.66R WCI  23
$$

NEZ044-045-051>053-067-251600-
OMAHA AREA

CITY           SKY/WX    TMP DP  RH WIND       PRES   REMARKS
OMAHA EPPLEY   MOCLDY    33  27  78 S15       29.68R WCI  23
BLAIR          PTCLDY    34  27  76 SE10      29.64R WCI  26
FREMONT        MOCLDY    34  28  80 SE6       29.64R WCI  29
MILLARD        PTCLDY    33  27  79 SE6       29.66R WCI  28
OFFUTT AFB     MOSUNNY   33  28  81 SE10      29.67R WCI  24
PLATTSMOUTH    MOSUNNY   32  26  78 SE13      29.66R WCI  23
WAHOO          FAIR      32  27  80 SE6       29.64R WCI  27
$$


USA.gov is the U.S. government's official web portal to all federal, state and local government web resources and services.